SCP
0 0 0 0 0 0 0 0 0 0 1 2 3 3 2 2 1 1 1 0 0 0 0 0 0 0 0 0 0 0 0 0 0 0 0 0 0 0 0 0 0 0 0
0 0 0 0 0 0 0 0 0 0 1 2 3 2 1 1 1 1 0 0 0 0 0 0 0 0 0 0 0 0 0 0 0 0 0 0 0 0 0 0 0 0 0
0 0 0 0 0 0 0 0 0 0 1 2 2 1 1 0 0 0 0 0 0 0 0 0 0 0 0 0 0 0 0 0 0 0 0 0 0 0 0 0 0 0 0
0 0 0 0 0 0 0 0 0 0 1 1 1 1 0 0 0 0 0 0 0 0 0 0 0 0 0 0 0 0 0 0 0 0 0 0 0 0 0 0 0 0 0
0 0 0 0 0 0 0 0 0 0 1 1 1 1 0 0 0 0 0 0 0 0 0 0 0 0 0 0 0 0 0 0 0 0 0 0 0 0 0 0 0 0 0
0 0 0 0 0 0 0 0 0 0 1 1 1 0 0 0 0 0 0 0 0 0 0 0 0 0 0 0 0 0 0 0 0 0 0 0 0 0 0 0 0 0 0
0 0 0 0 0 0 0 0 0 0 0 0 0 0 0 0 0 0 0 0 0 0 0 0 0 0 0 0 0 0 0 0 0 0 0 0 0 0 0 0 0 0 0
0 0 0 0 0 0 0 0 0 0 0 0 0 0 0 0 0 0 0 0 0 0 0 0 0 0 0 0 0 0 0 0 0 0 0 0 0 0 0 0 0 0 0
0 0 0 0 0 0 0 0 0 0 0 0 0 0 0 0 0 0 0 0 0 0 0 0 0 0 0 0 0 0 0 0 0 0 0 0 0 0 0 0 0 0 0
0 0 0 0 0 0 0 0 0 0 0 0 0 0 0 0 0 0 0 0 0 0 0 0 0 0 0 0 0 0 0 0 0 0 0 0 0 0 0 0 0 0 0
0 0 0 0 0 0 0 0 0 0 0 0 0 0 0 0 0 0 0 0 0 0 0 0 0 0 0 0 0 0 0 0 0 0 0 0 0 0 0 0 0 0 0
0 0 0 0 0 0 0 0 0 0 0 0 0 0 0 0 0 0 0 0 0 0 0 0 0 0 0 0 0 0 0 0 0 0 0 0 0 0 0 0 0 0 0
0 0 0 0 0 0 0 0 0 0 0 0 0 0 0 0 0 0 0 0 0 0 0 0 0 0 0 0 0 0 0 0 0 0 0 0 0 0 0 0 0 0 0
0 0 0 0 0 0 0 0 0 0 0 0 0 0 0 0 0 0 0 0 0 0 0 0 0 0 0 0 0 0 0 0 0 0 0 0 0 0 0 0 0 0 0
0 0 0 0 0 0 0 0 0 0 0 0 0 0 0 0 0 0 0 0 0 0 0 0 0 0 0 0 0 0 0 0 0 0 0 0 0 0 0 0 0 0 0
0 0 0 0 0 0 0 0 0 0 0 0 0 0 0 0 0 0 0 0 0 0 0 0 0 0 0 0 0 0 0 0 0 0 0 0 0 0 0 0 0 0 0
0 0 0 0 0 0 0 0 0 0 0 0 0 0 0 0 0 0 0 0 0 0 0 0 0 0 0 0 0 0 0 0 0 0 0 0 0 0 0 0 0 0 0
0 0 0 0 0 0 0 0 0 0 0 0 0 0 0 0 0 0 0 0 0 0 0 0 0 0 0 0 0 0 0 0 0 0 0 0 0 0 0 0 0 0 0
0 0 0 0 0 0 0 0 0 0 0 0 0 0 0 0 0 0 0 0 0 0 0 0 0 0 0 0 0 0 0 0 0 0 0 0 0 0 0 0 0 0 0
-0 0 0 0 0 0 0 0 0 0 0 0 0 0 0 0 0 0 0 0 0 0 0 0 0 0 0 0 0 0 0 0 0 0 0 0 0 0 0 0 0 0 0
0 0 0 0 0 0 0 0 0 0 0 0 0 0 0 0 0 0 0 0 0 0 0 0 0 0 0 0 0 0 0 0 0 0 0 0 0 0 0 0 0 0 0
0 0 0 0 0 0 0 0 0 0 0 0 0 0 0 0 0 0 0 0 0 0 0 0 0 0 0 0 0 0 0 0 0 0 0 0 0 0 0 0 0 0 0
0 0 0 0 0 0 0 0 0 0 0 0 0 0 0 0 0 0 0 0 0 0 0 0 0 0 0 0 0 0 0 0 0 0 0 0 0 0 0 0 0 0 0
0 0 0 0 0 0 0 0 0 0 0 0 0 0 0 0 0 0 0 0 0 0 0 0 0 0 0 0 0 0 0 0 0 0 0 0 0 0 0 0 0 0 0
0 0 0 0 -0 -0 -0 0 0 0 0 0 0 0 0 0 0 0 0 0 0 0 0 0 0 0 0 0 0 0 0 0 0 0 0 0 0 0 0 0 0 0 0
0 0 0 0 0 0 0 0 0 0 0 0 0 0 0 0 0 0 0 0 0 0 0 0 0 0 0 0 0 0 0 0 0 0 0 0 0 0 0 0 0 0 0
Wind_Speed
11 10 10 9 9 9 9 9 10 11 9 7 8 8 6 4 4 4 7 8 9 9 9 7 7 6 5 5 6 5 4 2 2 2 2 1 1 2 2 2 1 2 3
13 12 11 10 10 10 9 9 9 10 10 8 8 6 5 4 4 4 5 7 9 9 8 8 7 6 6 6 5 5 3 2 2 2 1 2 2 2 2 2 2 2 1
13 12 11 12 11 11 10 8 9 9 10 10 8 7 6 5 3 4 4 6 8 8 8 9 8 7 6 5 5 4 4 3 1 3 2 2 1 3 3 3 2 1 0
11 10 10 10 10 11 10 10 9 9 10 12 13 13 10 7 6 5 5 6 7 8 8 9 9 8 7 6 5 5 3 3 2 1 2 2 2 1 3 4 2 1 1
8 7 7 8 8 7 8 9 9 9 9 12 14 13 9 6 8 8 9 8 7 7 9 9 9 8 7 6 6 5 4 3 3 2 1 1 1 2 2 4 4 4 3
4 4 4 4 5 6 6 6 8 8 9 11 13 12 12 13 14 13 11 8 6 6 8 9 9 8 7 7 6 5 5 4 3 2 1 1 0 0 1 3 3 4 4
2 3 3 3 4 5 5 5 7 7 9 11 12 11 12 15 16 15 13 12 9 8 8 9 9 8 7 6 5 5 4 4 3 2 1 1 0 0 1 2 4 4 4
3 3 4 4 4 5 5 6 7 7 9 10 10 10 12 11 10 11 11 11 9 8 9 9 9 9 8 7 5 4 3 3 2 1 1 0 1 1 1 2 2 4 4
4 3 3 4 4 5 5 6 7 8 9 10 10 12 12 11 11 11 10 9 9 10 10 10 10 9 7 6 5 3 3 3 2 1 1 1 1 1 1 1 2 3 5
3 2 2 3 4 5 4 4 7 8 9 10 11 10 11 11 12 12 12 12 12 11 12 11 10 9 7 6 4 4 3 2 1 1 1 2 1 1 1 2 3 3 5
2 1 2 2 3 4 3 2 5 8 10 11 12 12 11 12 12 12 12 12 12 12 11 11 10 8 6 5 4 3 3 1 1 1 2 3 2 2 2 2 3 4 4
3 1 2 2 2 3 1 2 5 9 11 12 13 12 12 12 13 13 12 12 12 11 11 10 9 7 6 4 4 3 2 1 2 2 2 3 2 3 3 3 4 4 5
6 3 1 0 0 0 0 3 8 11 13 14 13 13 12 13 14 14 13 12 12 11 10 9 8 7 5 4 3 2 1 1 2 3 3 3 3 4 3 4 4 4 6
7 4 2 2 2 2 3 7 10 12 13 13 13 12 12 13 14 14 12 12 11 11 10 9 7 6 5 4 3 3 2 3 3 3 4 4 4 5 4 4 5 5 6
7 4 3 4 5 6 7 9 10 11 11 12 12 12 12 13 14 13 12 12 11 11 9 8 7 5 4 4 4 4 4 4 5 5 5 4 6 9 8 7 5 5 5
3 2 5 6 7 8 9 10 10 9 10 11 12 13 14 14 14 13 13 12 11 9 8 7 6 4 3 6 4 4 3 4 5 6 5 5 6 10 14 16 16 14 10
1 6 7 7 7 8 9 10 9 10 11 12 13 13 14 15 14 14 13 11 9 8 7 5 4 3 5 4 3 6 4 5 6 6 5 5 5 10 5 11 16 14 20
5 7 8 8 9 9 9 10 10 11 12 12 13 13 14 14 13 12 11 9 7 6 5 4 3 2 3 3 3 7 5 5 6 6 5 5 5 6 10 7 6 7 10
9 9 9 10 10 10 10 12 12 12 13 13 13 13 13 14 13 11 9 7 6 5 4 3 2 1 2 2 3 7 3 4 6 6 6 8 6 14 18 10 8 9 9
10 10 11 11 11 11 11 13 13 13 13 13 13 12 12 12 11 10 8 6 5 4 3 2 1 1 1 1 5 7 2 4 5 5 6 13 15 18 19 10 9 12 11
11 11 11 11 10 11 12 13 13 13 12 12 13 12 11 11 10 8 6 5 4 3 2 1 1 1 1 3 6 9 3 3 4 5 5 6 18 20 22 20 10 14 16
11 11 11 11 10 10 12 14 13 12 12 13 13 12 10 9 8 7 5 4 3 3 2 2 2 2 3 4 7 10 11 12 6 5 5 7 19 22 23 17 17 22 18
10 10 11 13 11 10 10 14 12 11 12 13 12 11 10 8 6 6 5 3 3 3 3 3 3 3 3 5 10 12 15 18 9 7 15 19 22 21 13 15 19 15 7
9 10 11 13 12 10 10 11 11 10 12 12 10 8 8 6 5 4 4 3 4 4 4 3 3 3 4 4 3 4 6 11 9 7 12 18 19 15 14 12 10 6 6
8 9 11 13 13 11 11 10 9 11 12 10 8 7 6 5 5 4 3 4 4 3 2 2 2 3 4 7 14 10 7 6 8 10 5 5 5 5 5 6 6 6 7
10 10 11 12 12 11 10 9 8 9 10 8 6 5 4 4 4 3 3 3 2 2 3 3 4 4 8 14 16 16 16 17 17 10 5 5 6 7 8 9 9 8 8
Wind_Direction
247 246 243 244 242 233 220 206 185 181 180 174 172 174 179 165 145 146 145 139 135 133 132 133 129 130 130 135 131 122 104 51 353 0 337 298 216 192 162 160 158 194 194
241 239 237 235 238 241 231 215 199 183 181 177 170 160 143 118 100 105 112 123 127 129 133 133 133 130 124 116 113 116 115 84 31 55 20 357 330 300 221 182 199 223 187
243 242 237 233 230 233 233 224 210 193 180 163 140 118 95 81 86 98 99 106 119 125 130 132 128 125 120 120 118 118 126 140 82 59 92 110 283 322 312 251 216 193 229
238 239 240 240 233 228 224 222 212 198 177 159 153 157 163 160 159 139 122 116 120 127 129 131 130 125 120 121 121 111 114 125 135 110 69 113 127 98 317 320 317 328 306
231 236 238 241 244 239 226 214 206 195 172 162 159 163 160 136 128 127 129 126 128 131 132 132 128 125 122 119 116 115 107 106 121 124 119 109 106 181 199 281 303 320 313
233 245 255 257 254 251 240 213 194 183 164 158 158 163 156 145 145 147 146 141 140 136 133 130 125 121 119 119 120 118 112 101 96 92 94 105 125 305 236 270 293 294 287
303 300 295 289 277 261 237 208 187 173 159 155 159 163 154 152 156 155 153 150 150 146 143 136 128 123 120 119 120 120 122 116 114 111 90 63 56 280 267 274 285 291 294
291 305 311 303 285 269 241 200 185 169 158 156 158 153 145 150 153 153 152 152 150 145 140 133 125 123 123 126 126 125 133 124 133 151 132 108 288 280 251 253 292 302 288
247 269 296 307 306 289 251 203 183 168 160 155 145 142 143 144 144 144 142 141 140 140 136 129 126 127 127 130 138 139 141 138 158 169 169 219 249 249 251 254 239 257 286
228 238 279 310 303 293 269 209 180 165 154 145 138 138 135 135 138 139 141 141 141 139 135 128 128 126 125 130 128 124 122 126 167 156 185 264 262 269 266 260 259 248 267
290 324 332 327 311 301 276 201 166 146 135 128 124 127 128 131 134 135 136 137 136 135 131 129 127 127 130 130 129 135 135 164 243 240 232 251 260 266 272 277 274 268 266
281 303 315 329 332 316 283 160 137 127 122 119 119 122 125 129 131 131 131 132 130 127 125 124 122 123 120 118 121 126 138 212 255 270 275 277 282 281 275 270 268 270 271
280 282 278 234 190 295 268 124 116 114 114 117 120 124 129 130 130 129 128 127 123 118 114 112 112 111 107 98 85 73 26 307 282 271 265 268 275 277 272 275 278 279 288
274 264 241 154 141 131 108 104 104 107 112 117 124 129 131 130 126 123 121 118 115 111 106 103 103 103 102 96 70 36 349 316 301 288 270 259 254 257 262 273 271 276 279
269 236 167 121 114 104 94 96 99 105 114 120 125 127 125 122 118 116 113 109 106 104 101 101 98 96 101 86 60 18 342 330 315 303 289 276 281 287 288 285 273 277 278
275 150 120 113 111 107 104 103 104 109 116 122 123 122 120 117 113 111 108 104 101 99 99 102 105 106 100 90 48 355 334 322 312 302 296 295 297 297 302 306 305 302 300
24 111 109 106 103 104 108 109 111 112 116 119 119 119 117 114 110 109 106 104 102 102 104 107 113 112 118 108 29 341 331 306 292 289 290 294 296 308 299 295 299 299 299
88 96 96 94 95 99 103 105 108 112 114 114 114 113 111 109 107 106 103 102 104 106 108 106 98 97 141 122 18 340 336 306 297 296 295 293 290 291 298 284 286 280 290
78 85 90 95 97 100 106 108 108 109 110 111 111 110 110 108 106 104 102 103 104 100 100 98 85 63 110 118 4 346 325 308 309 312 318 318 301 303 309 311 300 294 290
74 83 89 93 96 99 105 109 109 109 108 109 108 106 106 106 104 103 100 96 99 103 103 92 48 35 53 2 345 339 322 311 310 311 311 314 311 310 314 311 301 301 298
82 89 94 94 97 102 106 107 106 107 109 108 104 100 98 99 100 97 94 93 89 86 80 62 354 6 22 352 329 327 320 293 295 297 296 298 311 312 311 311 303 299 304
94 98 101 100 98 101 108 108 108 109 107 103 99 95 92 93 93 92 86 83 76 58 42 26 15 13 16 349 322 325 329 328 319 307 299 302 312 313 313 313 307 308 313
101 104 108 107 105 106 112 111 110 111 107 101 97 95 91 87 88 88 79 65 59 53 36 23 14 355 358 342 345 343 334 327 323 310 314 316 316 316 313 309 313 319 314
100 104 105 104 102 101 102 105 107 106 103 99 96 94 93 88 80 77 66 56 57 49 33 21 8 353 344 337 342 330 318 318 317 308 308 315 314 314 316 318 319 311 298
97 99 103 103 101 100 97 96 100 102 99 95 91 87 85 88 81 76 73 70 77 79 45 8 356 343 325 321 328 328 318 313 305 313 307 305 308 313 315 311 306 304 307
100 100 100 101 100 97 92 87 90 97 99 95 87 82 79 72 67 63 58 73 74 35 357 337 332 321 323 327 330 326 324 325 323 327 320 315 317 316 315 314 313 311 308